Date String (YYYY-MM-DD hh:mm:ss) UTC,Instrument flags,Ambient pressure (hPa),Sample flow (lpm),Bypass flow (lpm),Sample temperature (°C),Ambient temperature (°C),ASC tube jacket temperature (°C),LED temperature (°C),Box temperature (°C),Sample RH (%),Span deviation,Mass concentration (μg/m³),Mass concentration (μg/m³),Mass concentration (μg/m³)
DateTimeUTC,F1_M11,P_M11,Q1_M11,Q2_M11,T1_M11,T2_M11,T3_M11,T4_M11,T5_M11,U1_M11,ZSPAN_M11,X0_M11,X2_M11,X1_M11
2022-08-13 08:00:00,,0831.0,4.99,0.00,29.6,28.9,00.0,38.3,31.7,31.8,0000.0,0023.17,0006.05,0003.85
2022-08-13 08:01:00,,0831.1,5.00,0.00,29.7,29.0,00.0,38.4,31.7,31.7,0000.0,0022.38,0006.06,0003.85
2022-08-13 08:02:00,,0831.0,5.00,0.00,29.7,29.0,00.0,38.4,31.7,31.7,0000.0,0021.68,0005.98,0003.84
2022-08-13 08:03:00,,0831.1,5.00,0.00,29.7,29.1,00.0,38.4,31.8,31.7,0000.0,0020.57,0005.81,0003.82
2022-08-13 08:04:00,,0831.2,5.00,0.00,29.8,29.1,00.0,38.4,31.8,31.7,0000.0,0019.83,0005.78,0003.82
2022-08-13 08:05:00,,0831.2,5.00,0.00,29.8,29.1,00.0,38.5,31.8,31.7,0000.0,0019.60,0005.67,0003.81
2022-08-13 08:06:00,,0831.2,4.99,0.00,29.8,28.9,00.0,38.5,31.8,31.8,0000.0,0017.87,0005.54,0003.80
2022-08-13 08:07:00,,0831.2,5.01,0.00,29.8,28.0,00.0,38.4,31.5,31.9,0000.0,0016.37,0005.50,0003.80
2022-08-13 08:08:00,,0831.2,5.00,0.00,29.7,27.4,00.0,38.4,31.3,31.7,0000.0,0016.34,0005.50,0003.81
2022-08-13 08:09:00,,0831.1,5.01,0.00,29.6,27.2,00.0,38.4,31.3,31.9,0000.0,0018.43,0005.43,0003.80
2022-08-13 08:10:00,,0831.2,5.00,0.00,29.5,27.2,00.0,38.3,31.2,32.3,0000.0,0019.06,0005.44,0003.81
2022-08-13 08:11:00,,0831.2,5.01,0.00,29.5,27.4,00.0,38.3,31.2,32.3,0000.0,0018.47,0005.37,0003.81
2022-08-13 08:12:00,,0831.2,4.99,0.00,29.4,27.5,00.0,38.3,31.2,32.4,0000.0,0018.67,0005.30,0003.80
2022-08-13 08:13:00,,0831.2,5.01,0.00,29.4,27.7,00.0,38.3,31.3,32.5,0000.0,0018.40,0005.28,0003.80
2022-08-13 08:14:00,,0831.2,4.99,0.00,29.4,27.9,00.0,38.3,31.3,32.5,0000.0,0018.28,0005.23,0003.79
2022-08-13 08:15:00,,0831.2,4.99,0.00,29.5,28.0,00.0,38.3,31.3,32.6,0000.0,0016.88,0005.13,0003.79
2022-08-13 08:16:00,,0831.1,5.00,0.00,29.5,28.2,00.0,38.3,31.4,32.6,0000.0,0016.56,0005.13,0003.78
2022-08-13 08:17:00,,0831.2,5.01,0.00,29.5,28.3,00.0,38.3,31.4,32.6,0000.0,0016.19,0005.09,0003.77
2022-08-13 08:18:00,,0831.2,5.00,0.00,29.5,28.4,00.0,38.3,31.4,32.5,0000.0,0015.98,0005.06,0003.76
2022-08-13 08:19:00,,0831.2,5.00,0.00,29.5,28.5,00.0,38.3,31.5,32.5,0000.0,0015.49,0005.02,0003.76
2022-08-13 08:20:00,,0831.2,5.00,0.00,29.6,28.6,00.0,38.3,31.5,32.5,0000.0,0014.61,0005.04,0003.77
2022-08-13 08:21:00,,0831.2,5.00,0.00,29.6,28.7,00.0,38.3,31.6,32.5,0000.0,0013.90,0005.02,0003.77
2022-08-13 08:22:00,,0831.2,4.99,0.00,29.6,28.7,00.0,38.4,31.6,32.5,0000.0,0014.04,0005.04,0003.77
2022-08-13 08:23:00,,0831.2,5.01,0.00,29.6,28.8,00.0,38.4,31.6,32.3,0000.0,0014.04,0004.99,0003.76
2022-08-13 08:24:00,,0831.2,4.99,0.00,29.7,28.9,00.0,38.4,31.7,32.6,0000.0,0014.28,0004.96,0003.76
2022-08-13 08:25:00,,0831.2,4.99,0.00,29.7,28.9,00.0,38.4,31.7,32.5,0000.0,0014.05,0004.97,0003.76
2022-08-13 08:26:00,,0831.2,5.01,0.00,29.7,29.0,00.0,38.4,31.7,32.5,0000.0,0013.85,0005.01,0003.77
2022-08-13 08:27:00,,0831.2,5.01,0.00,29.8,29.0,00.0,38.5,31.8,32.6,0000.0,0013.70,0004.97,0003.76
2022-08-13 08:28:00,,0831.3,5.00,0.00,29.8,29.1,00.0,38.5,31.8,32.8,0000.0,0014.25,0004.96,0003.77
2022-08-13 08:29:00,,0831.3,5.01,0.00,29.8,29.1,00.0,38.5,31.8,32.8,0000.0,0014.77,0004.96,0003.78
2022-08-13 08:30:00,,0831.3,5.00,0.00,29.9,29.1,00.0,38.5,31.9,32.8,0000.0,0014.53,0005.01,0003.78
2022-08-13 08:31:00,,0831.4,4.99,0.00,29.9,29.2,00.0,38.6,31.9,32.8,0000.0,0013.20,0005.03,0003.79
2022-08-13 08:32:00,,0831.3,5.00,0.00,29.9,29.2,00.0,38.6,31.9,32.9,0000.0,0013.06,0005.04,0003.80
2022-08-13 08:33:00,,0831.4,5.00,0.00,30.0,29.3,00.0,38.6,31.9,33.0,0000.0,0012.62,0005.02,0003.82
2022-08-13 08:34:00,,0831.5,5.00,0.00,30.0,29.3,00.0,38.6,32.0,33.0,0000.0,0012.54,0005.08,0003.86
2022-08-13 08:35:00,,0831.5,5.01,0.00,30.0,29.0,00.0,38.6,31.9,33.0,0000.0,0012.10,0005.06,0003.88
2022-08-13 08:36:00,,0831.5,5.00,0.00,29.9,28.1,00.0,38.6,31.6,33.2,0000.0,0012.07,0005.10,0003.91
2022-08-13 08:37:00,,0831.5,4.99,0.00,29.8,27.5,00.0,38.5,31.4,33.4,0000.0,0012.88,0005.11,0003.94
2022-08-13 08:38:00,,0831.5,5.00,0.00,29.7,27.4,00.0,38.5,31.4,33.6,0000.0,0012.63,0005.18,0003.98
2022-08-13 08:39:00,,0831.6,5.01,0.00,29.7,27.4,00.0,38.5,31.3,33.8,0000.0,0012.22,0005.25,0004.01
2022-08-13 08:40:00,,0831.6,5.01,0.00,29.6,27.5,00.0,38.5,31.3,34.0,0000.0,0012.00,0005.31,0004.04
2022-08-13 08:41:00,,0831.5,4.98,0.00,29.6,27.7,00.0,38.5,31.4,34.1,0000.0,0012.17,0005.32,0004.08
2022-08-13 08:42:00,,0831.5,5.01,0.00,29.6,27.9,00.0,38.5,31.4,34.1,0000.0,0012.45,0005.34,0004.11
2022-08-13 08:43:00,,0831.6,4.99,0.00,29.6,28.0,00.0,38.5,31.4,34.1,0000.0,0013.22,0005.37,0004.14
2022-08-13 08:44:00,,0831.5,5.01,0.00,29.6,28.2,00.0,38.4,31.5,34.1,0000.0,0013.89,0005.41,0004.17
2022-08-13 08:45:00,,0831.6,4.99,0.00,29.6,28.3,00.0,38.4,31.5,34.1,0000.0,0013.87,0005.45,0004.20
2022-08-13 08:46:00,,0831.6,5.00,0.00,29.6,28.4,00.0,38.5,31.5,34.1,0000.0,0014.92,0005.55,0004.24
2022-08-13 08:47:00,,0831.6,5.00,0.00,29.6,28.5,00.0,38.5,31.6,34.1,0000.0,0015.92,0005.57,0004.27
2022-08-13 08:48:00,,0831.7,4.99,0.00,29.7,28.6,00.0,38.5,31.6,34.0,0000.0,0016.57,0005.62,0004.30
2022-08-13 08:49:00,,0831.7,5.01,0.00,29.7,28.7,00.0,38.5,31.6,34.0,0000.0,0017.15,0005.63,0004.33
2022-08-13 08:50:00,,0831.7,4.99,0.00,29.7,28.8,00.0,38.5,31.7,34.0,0000.0,0017.25,0005.60,0004.37
2022-08-13 08:51:00,,0831.7,5.00,0.00,29.8,28.8,00.0,38.5,31.7,34.0,0000.0,0017.06,0005.56,0004.39
2022-08-13 08:52:00,,0831.7,5.00,0.00,29.8,28.9,00.0,38.5,31.8,33.8,0000.0,0017.12,0005.60,0004.41
2022-08-13 08:53:00,,0831.7,4.99,0.00,29.8,29.0,00.0,38.5,31.7,33.8,0000.0,0017.06,0005.66,0004.44
2022-08-13 08:54:00,,0831.7,5.00,0.00,29.8,29.0,00.0,38.6,31.8,33.8,0000.0,0016.78,0005.70,0004.46
2022-08-13 08:55:00,,0831.8,5.00,0.00,29.9,29.1,00.0,38.6,31.8,33.8,0000.0,0016.44,0005.77,0004.48
2022-08-13 08:56:00,,0831.8,5.00,0.00,29.9,29.1,00.0,38.6,31.9,33.7,0000.0,0017.42,0005.80,0004.49
2022-08-13 08:57:00,,0831.9,5.00,0.00,29.9,29.0,00.0,38.6,31.9,33.7,0000.0,0016.88,0005.81,0004.50
2022-08-13 08:58:00,,0832.0,4.99,0.00,29.9,28.3,00.0,38.6,31.6,33.7,0000.0,0016.56,0005.83,0004.51
2022-08-13 08:59:00,,0832.0,5.00,0.00,29.8,27.5,00.0,38.5,31.4,33.8,0000.0,0015.72,0005.85,0004.53
